Wind_Speed
16 18 19 19 20 21 22 22 23 25 27 29 31 34 37 39 42 43 43 43 42 40 39 39 40 40 40 40 39 38 36 35 34 32 31 30 30 31 31 32 32 31 29 28
14 15 17 17 18 20 21 22 22 24 26 28 30 33 35 38 40 42 44 45 44 41 40 41 41 42 42 42 42 42 41 39 37 35 34 33 33 33 34 35 35 33 31 30
13 14 15 17 18 19 21 22 22 23 24 28 31 33 34 36 38 40 41 43 45 44 43 41 41 42 43 43 42 42 42 40 39 38 36 35 35 34 35 36 36 35 32 31
12 14 16 17 17 18 20 22 23 24 25 26 29 32 33 35 37 39 41 42 42 42 42 40 40 42 42 43 42 42 41 40 39 38 37 37 36 35 35 36 35 34 32 30
12 14 16 17 18 19 20 21 23 23 23 25 26 29 30 30 31 34 37 39 38 35 35 36 38 39 39 39 40 40 40 40 39 38 38 37 36 35 34 34 34 33 32 32
12 15 16 18 18 19 20 21 22 21 21 22 23 24 25 24 25 27 30 32 32 32 31 29 30 34 33 34 35 36 37 38 38 38 37 37 36 35 34 34 34 34 33 32
11 14 16 18 19 19 19 20 19 19 19 19 19 20 21 21 22 23 24 25 26 27 27 27 26 26 27 29 31 33 35 36 37 37 36 36 36 35 34 34 35 36 35 35
13 14 16 17 18 17 17 17 16 16 16 16 17 17 19 19 20 20 20 20 20 20 21 19 20 22 25 27 29 31 33 34 35 36 36 36 36 36 36 37 37 37 37 37
16 16 17 18 17 16 16 16 16 15 15 15 15 15 16 16 17 17 16 14 13 13 13 14 16 18 22 25 27 29 31 33 35 35 36 37 37 38 39 39 38 38 38 37
17 16 17 18 17 16 16 17 17 15 15 15 15 15 15 14 13 12 11 10 10 8 9 11 12 13 15 18 21 24 26 28 31 33 35 36 37 37 37 36 36 35 33 32
18 17 17 17 16 15 17 17 17 15 15 15 15 16 17 16 15 14 12 11 9 8 6 4 6 7 8 10 13 16 17 19 22 24 27 29 29 29 29 29 29 28 27 27
20 19 18 17 17 17 17 17 16 16 16 16 16 17 18 18 17 16 15 14 13 11 9 6 3 2 2 2 3 5 7 8 10 12 14 16 17 18 18 17 17 16 16 17
22 20 19 18 18 18 17 17 17 17 17 17 18 18 19 19 18 18 17 16 15 14 13 12 10 8 7 6 5 4 4 3 2 2 3 4 5 5 6 6 6 7 8 8
23 21 20 19 18 18 18 19 19 19 18 18 19 19 19 19 19 19 19 19 18 17 16 14 14 13 11 11 10 10 9 9 8 8 7 7 5 4 3 2 2 2 3 4
24 22 21 19 18 18 19 20 20 20 20 20 20 20 19 19 20 20 20 20 20 19 19 18 17 17 16 15 14 14 13 13 12 11 10 9 8 7 6 5 4 4 5 5
25 23 21 18 18 18 19 20 20 20 20 20 20 20 20 19 20 20 20 20 20 19 19 19 18 18 17 17 16 16 15 15 14 13 12 11 10 9 8 8 8 8 9 10
23 24 22 20 18 18 19 20 20 20 20 20 20 20 20 20 19 20 20 20 20 20 19 19 19 19 19 18 18 18 17 17 16 15 15 14 13 12 11 10 10 10 11 12
22 24 23 21 19 19 19 19 19 19 19 19 19 20 20 20 19 20 20 20 20 20 20 20 20 20 20 20 20 20 19 19 19 18 17 16 15 14 13 12 12 12 13 14
20 22 23 22 20 19 19 19 18 18 18 18 18 19 19 19 19 20 21 21 21 21 21 21 21 21 21 21 20 20 20 20 19 19 18 18 17 16 16 15 14 14 14 14
18 20 21 22 20 19 18 18 18 17 17 17 17 17 18 18 19 21 21 22 22 22 22 22 21 21 21 21 20 20 20 20 20 20 19 19 19 18 17 17 16 15 15 14
14 16 18 20 20 19 18 18 18 17 17 17 16 16 17 17 18 19 20 21 21 21 21 21 21 20 20 20 19 20 20 20 20 20 20 20 20 20 19 18 18 17 16 15
11 13 15 17 18 18 18 17 17 17 16 16 16 16 16 16 17 17 17 18 19 19 19 19 19 19 19 19 19 19 20 20 21 21 22 22 22 21 21 20 20 20 18 18
8 11 13 14 16 17 17 17 17 17 16 15 15 15 14 14 15 15 15 16 17 17 17 18 18 19 19 19 19 19 19 20 21 21 22 23 23 24 23 22 22 22 22 20
6 7 9 10 12 14 15 16 16 17 16 15 14 14 13 13 13 13 13 13 14 15 15 16 17 18 18 19 18 18 19 20 20 21 21 22 23 24 24 24 24 24 24 24
4 4 6 7 9 11 12 14 15 16 15 15 14 13 13 12 11 11 11 11 12 12 13 14 15 16 17 18 18 18 18 19 20 20 20 20 22 23 23 23 24 25 25 26
5 5 5 5 6 8 9 11 12 13 14 14 13 13 12 12 10 9 9 10 10 10 11 12 13 15 16 16 17 17 17 18 20 20 20 19 20 21 22 23 23 24 25 26
Wind_Direction
281 285 288 289 288 288 288 288 288 288 286 282 278 274 271 270 269 267 266 264 261 261 262 263 262 261 261 261 262 262 262 263 263 262 262 261 262 264 267 267 266 264 260 258
288 288 291 294 296 298 298 299 296 293 291 287 283 280 276 273 271 270 268 268 266 266 266 264 261 259 259 259 260 260 261 262 262 262 261 260 260 261 263 265 265 264 261 256
299 299 303 305 307 306 305 304 302 297 292 289 286 284 282 280 276 273 272 270 268 269 266 262 258 256 256 256 256 257 258 258 259 259 258 258 258 259 261 263 265 263 263 256
310 309 310 311 310 308 305 305 303 300 296 289 285 283 284 281 277 272 271 270 270 269 266 260 255 253 252 253 252 253 253 254 255 255 255 255 255 256 259 264 268 268 269 264
316 314 315 316 314 311 311 310 308 306 302 295 290 286 285 282 276 272 271 269 268 267 264 260 255 250 249 248 248 248 249 250 251 251 252 252 253 254 257 262 267 269 274 269
323 321 320 318 317 318 319 318 316 314 311 304 300 295 293 288 284 280 276 271 268 263 262 262 256 247 246 245 245 246 247 247 248 248 249 251 252 254 256 261 266 273 275 274
330 328 329 329 330 329 327 327 326 325 324 319 316 310 306 299 295 293 286 280 274 269 269 266 261 252 250 248 247 247 247 247 247 248 249 251 253 255 259 263 267 272 275 277
353 346 343 340 335 334 336 339 341 341 339 337 335 326 318 307 303 300 298 294 287 279 275 274 271 261 258 255 251 249 249 249 248 249 251 253 255 259 263 266 269 272 273 274
6 357 350 347 346 349 353 356 357 358 358 354 353 348 338 327 320 316 313 312 308 292 283 278 273 268 263 260 256 255 253 252 252 252 253 256 259 263 266 269 271 272 272 271
8 0 355 354 356 1 6 8 9 10 11 9 6 7 4 359 353 347 342 339 333 312 290 284 279 277 275 270 264 261 259 258 257 256 258 261 263 267 270 272 273 272 270 268
14 8 5 4 7 12 17 17 19 19 20 19 22 28 29 29 26 25 28 25 16 11 356 317 295 288 287 278 270 264 265 264 263 262 262 263 265 268 270 272 272 270 268 265
21 18 14 14 18 23 24 22 25 27 27 27 35 41 41 42 39 37 40 40 38 42 41 39 16 349 321 298 287 279 274 272 269 269 267 266 266 268 269 269 268 267 264 262
25 24 21 23 27 29 27 31 35 36 34 35 42 48 49 48 47 47 50 53 55 55 54 55 56 65 72 69 69 66 43 32 21 346 311 281 272 267 266 268 270 271 266 262
28 28 28 29 32 35 37 39 41 41 39 41 46 50 51 50 53 54 55 58 61 60 58 60 63 67 68 66 66 65 64 63 61 56 55 54 51 48 43 23 324 293 275 254
30 31 33 35 37 41 41 41 43 44 43 46 48 49 52 55 56 57 57 58 61 62 62 63 63 63 65 64 62 61 59 60 59 57 55 51 45 39 30 16 357 333 314 300
33 33 34 38 42 45 44 42 44 45 45 48 51 52 53 54 55 56 57 59 60 60 61 62 62 63 63 63 61 60 58 56 54 51 47 41 34 25 13 358 344 329 316 307
35 35 35 38 42 47 47 43 43 44 44 47 49 50 50 52 53 55 57 59 60 61 61 62 63 65 65 64 62 60 57 54 50 46 41 36 29 20 9 357 345 333 323 313
34 36 38 39 41 47 45 43 43 44 45 47 48 49 50 51 54 56 57 58 59 61 63 65 66 66 65 63 61 59 56 53 50 46 41 35 26 17 7 356 347 336 325 316
32 34 36 38 41 45 44 43 43 44 47 46 48 49 52 53 56 58 58 60 61 63 65 66 66 65 62 61 60 58 55 51 47 42 38 32 26 20 13 4 354 347 339 330
31 33 35 37 39 42 43 44 44 44 48 46 47 50 53 56 57 58 60 62 63 64 65 65 63 62 60 58 56 53 50 46 42 38 34 29 24 20 15 10 5 0 353 344
28 33 35 38 40 42 42 42 43 46 46 46 47 50 53 56 56 58 60 62 63 63 62 61 59 57 55 52 49 47 44 41 38 35 32 28 25 23 22 19 16 11 7 0
23 30 35 37 40 40 40 42 42 44 45 46 46 49 52 55 57 58 60 61 60 60 59 57 54 51 48 46 44 43 40 38 36 36 34 31 30 29 28 26 23 21 20 16
12 23 30 34 37 38 38 38 39 40 43 44 45 46 49 52 55 57 58 57 55 55 54 52 48 45 42 41 40 38 37 36 35 35 35 34 34 34 34 32 30 29 28 26
349 10 21 28 32 34 34 35 36 38 40 42 44 45 46 48 50 52 53 52 51 50 48 46 43 41 39 38 37 37 36 35 34 33 34 34 34 35 35 34 34 33 32 32
312 336 1 17 25 28 30 32 34 35 37 40 42 43 43 43 43 43 44 44 43 42 41 39 38 37 37 36 37 38 37 35 33 33 33 33 33 33 33 33 33 34 34 35
293 306 325 345 4 14 21 26 30 31 33 36 38 39 39 38 39 37 34 32 31 31 30 29 30 31 33 34 35 36 36 35 34 33 32 31 31 32 32 32 33 33 34 35
Height
5897 5896 5894 5892 5890 5887 5886 5884 5881 5879 5876 5874 5871 5869 5867 5865 5863 5862 5862 5862 5862 5862 5863 5864 5865 5865 5866 5866 5868 5870 5871 5873 5875 5877 5878 5878 5879 5878 5877 5877 5876 5877 5877 5877
5894 5891 5889 5886 5884 5881 5879 5877 5875 5872 5869 5866 5862 5860 5857 5855 5853 5852 5851 5851 5850 5850 5851 5852 5853 5854 5855 5856 5857 5859 5861 5863 5865 5867 5868 5869 5870 5870 5870 5869 5867 5867 5868 5869
5890 5887 5884 5882 5880 5876 5873 5871 5869 5866 5863 5858 5854 5851 5848 5845 5843 5841 5839 5838 5838 5838 5839 5840 5841 5842 5843 5845 5846 5848 5850 5852 5854 5856 5858 5860 5860 5861 5860 5858 5856 5856 5858 5859
5886 5883 5880 5878 5875 5872 5869 5865 5862 5859 5856 5852 5848 5843 5839 5835 5833 5830 5828 5827 5826 5826 5826 5827 5829 5830 5831 5833 5835 5837 5840 5842 5844 5846 5848 5850 5851 5851 5851 5849 5848 5847 5848 5849
5883 5879 5877 5874 5871 5867 5864 5859 5856 5852 5848 5844 5839 5835 5831 5827 5824 5821 5818 5816 5815 5815 5814 5816 5817 5819 5821 5823 5825 5827 5830 5832 5834 5836 5838 5840 5841 5842 5843 5842 5841 5840 5840 5839
5880 5877 5873 5870 5866 5863 5859 5854 5850 5846 5842 5837 5832 5828 5823 5819 5815 5812 5810 5807 5806 5805 5805 5806 5807 5809 5811 5814 5816 5818 5821 5823 5825 5827 5829 5831 5832 5833 5834 5835 5834 5832 5832 5832
5879 5875 5870 5866 5862 5858 5855 5851 5846 5841 5836 5831 5826 5821 5817 5812 5808 5805 5803 5800 5798 5798 5797 5798 5800 5802 5805 5807 5809 5811 5813 5815 5817 5818 5820 5822 5823 5825 5826 5827 5827 5826 5825 5826
5876 5873 5868 5863 5859 5855 5851 5847 5843 5838 5833 5827 5822 5817 5814 5808 5804 5800 5797 5795 5793 5792 5793 5794 5795 5798 5800 5801 5802 5804 5806 5807 5809 5811 5812 5814 5815 5816 5817 5818 5818 5818 5818 5819
5874 5870 5865 5861 5857 5852 5848 5843 5839 5835 5830 5825 5820 5815 5810 5805 5801 5797 5794 5791 5789 5789 5789 5790 5791 5793 5794 5794 5796 5797 5798 5800 5802 5803 5805 5806 5807 5808 5808 5808 5808 5809 5809 5809
5873 5869 5864 5860 5855 5850 5847 5842 5838 5833 5829 5824 5820 5814 5810 5804 5800 5796 5792 5790 5788 5787 5787 5788 5788 5788 5789 5789 5790 5791 5792 5793 5794 5796 5797 5798 5799 5799 5799 5799 5798 5798 5799 5799
5872 5868 5864 5859 5854 5850 5846 5842 5837 5833 5829 5824 5819 5817 5810 5805 5801 5797 5793 5791 5788 5787 5787 5786 5786 5786 5786 5786 5787 5787 5787 5788 5789 5789 5790 5791 5791 5791 5791 5791 5790 5790 5790 5790
5872 5868 5863 5859 5854 5849 5846 5842 5838 5834 5830 5825 5821 5820 5812 5808 5804 5800 5797 5794 5791 5790 5789 5787 5787 5786 5786 5785 5785 5785 5785 5785 5785 5785 5785 5785 5785 5785 5785 5785 5784 5784 5784 5784
5873 5868 5864 5860 5857 5852 5847 5843 5839 5835 5831 5827 5823 5822 5815 5811 5808 5804 5801 5798 5796 5794 5792 5790 5789 5788 5787 5787 5786 5786 5785 5785 5784 5784 5783 5783 5782 5782 5782 5781 5781 5780 5780 5780
5874 5869 5866 5862 5857 5853 5849 5845 5841 5838 5834 5830 5826 5822 5819 5815 5812 5809 5805 5803 5800 5798 5796 5794 5793 5791 5790 5790 5789 5788 5787 5787 5786 5785 5784 5783 5783 5782 5781 5780 5780 5779 5779 5778
5876 5871 5867 5863 5859 5855 5852 5848 5844 5841 5837 5833 5830 5826 5823 5820 5817 5814 5810 5807 5805 5803 5801 5799 5797 5795 5794 5793 5792 5791 5790 5789 5788 5787 5786 5785 5784 5783 5782 5781 5780 5779 5779 5778
5879 5874 5870 5866 5862 5858 5855 5851 5847 5844 5840 5837 5834 5831 5827 5824 5821 5818 5815 5812 5810 5808 5806 5804 5802 5800 5799 5797 5796 5795 5794 5792 5791 5790 5788 5787 5786 5784 5783 5782 5780 5779 5778 5776
5882 5877 5873 5869 5865 5861 5858 5854 5850 5847 5844 5841 5838 5836 5832 5829 5826 5823 5820 5817 5815 5812 5810 5808 5806 5805 5803 5802 5800 5799 5797 5795 5794 5792 5790 5789 5787 5785 5783 5781 5780 5778 5776 5774
5885 5880 5876 5871 5868 5864 5863 5857 5854 5850 5847 5845 5842 5839 5836 5834 5831 5828 5825 5822 5819 5817 5815 5813 5811 5810 5808 5806 5804 5803 5801 5799 5797 5795 5793 5791 5788 5786 5784 5781 5779 5776 5774 5771
5887 5883 5878 5874 5870 5867 5864 5860 5856 5854 5851 5848 5846 5843 5840 5838 5835 5832 5829 5827 5824 5822 5820 5818 5816 5815 5813 5811 5809 5807 5805 5803 5800 5798 5795 5793 5790 5787 5784 5780 5777 5774 5771 5768
5889 5885 5882 5877 5873 5870 5868 5863 5860 5858 5854 5852 5849 5847 5844 5842 5840 5837 5834 5831 5829 5827 5825 5823 5821 5819 5817 5815 5813 5811 5809 5806 5803 5801 5798 5794 5791 5787 5784 5780 5777 5773 5770 5766
5891 5888 5884 5880 5876 5873 5870 5866 5863 5861 5859 5855 5852 5850 5848 5845 5843 5841 5838 5836 5834 5832 5830 5828 5826 5824 5822 5820 5818 5815 5812 5810 5807 5803 5800 5796 5792 5789 5785 5781 5778 5774 5769 5765
5892 5889 5886 5882 5879 5878 5872 5869 5866 5864 5860 5857 5855 5853 5851 5849 5846 5844 5842 5840 5838 5837 5835 5833 5831 5828 5826 5824 5821 5819 5816 5813 5809 5806 5802 5799 5795 5791 5787 5783 5779 5774 5770 5766
5892 5890 5887 5885 5883 5879 5875 5872 5869 5865 5862 5860 5857 5855 5853 5851 5850 5848 5846 5844 5842 5840 5838 5836 5834 5832 5829 5827 5824 5822 5819 5816 5812 5809 5805 5802 5798 5793 5789 5785 5781 5777 5772 5768
5892 5889 5887 5885 5882 5880 5877 5874 5871 5867 5864 5862 5860 5858 5856 5854 5852 5851 5849 5847 5845 5843 5841 5839 5837 5835 5832 5830 5827 5825 5822 5818 5815 5812 5809 5805 5801 5797 5793 5789 5784 5780 5775 5770
5890 5888 5887 5885 5883 5880 5878 5875 5873 5870 5867 5864 5862 5860 5858 5856 5854 5853 5851 5849 5848 5846 5844 5842 5840 5838 5835 5833 5830 5827 5824 5821 5818 5815 5811 5808 5804 5800 5796 5792 5788 5783 5779 5774
5889 5887 5886 5885 5883 5881 5879 5877 5874 5871 5869 5866 5864 5861 5860 5858 5856 5854 5853 5851 5849 5848 5846 5844 5842 5840 5838 5835 5833 5830 5827 5824 5821 5818 5814 5811 5807 5804 5800 5796 5792 5787 5783 5779